Regional Weather Roundup
Issued by NWS

Home | Current Version | Previous Version | Text Only | Print | Product List | Glossary Off
Versions: 1 2 3 4 5 6 7 8 9 10 11 12 13 14 15 16 17 18 19 20 21 22 23 24 25 26 27

000
ASUS45 KBOU 100807
RWRCO

WEATHER ROUNDUP FOR COLORADO
NATIONAL WEATHER SERVICE DENVER/BOULDER CO
100 AM MST SAT DEC 10 2016

NOTE: "FAIR" INDICATES FEW OR NO CLOUDS BELOW 12000 FEET WITH NO
SIGNIFICANT WEATHER AND/OR OBSTRUCTIONS TO VISIBILITY.

COZ001>005-013-030-031-100900-
...NORTHWEST COLORADO...

CITY           SKY/WX    TMP DP  RH WIND       PRES   REMARKS
CRAIG          FAIR      24  21  88 E7        30.10F WCI  16
HAYDEN         CLOUDY    28  21  74 S6        30.11F WCI  22
MEEKER         FAIR      37  23  56 W10G18    30.12F
MOUNT WERNER   NOT AVBL
STEAMBOAT SPGS CLOUDY    24  23  97 CALM      30.11F
WALDEN           N/A     34  21  60 E6        30.10F WCI  29
$$

COZ006>008-011-100900-
...WEST CENTRAL VALLEYS...

CITY           SKY/WX    TMP DP  RH WIND       PRES   REMARKS
GRAND JUNCTION FAIR      23  19  85 NE5       30.20F WCI  17
MONTROSE       FAIR      27  22  81 SE7       30.22F WCI  19
EAGLE          FAIR      21  20  96 S5        30.19F WCI  15
RIFLE          CLOUDY    24  20  84 SE5       30.20F WCI  18
DELTA          NOT AVBL
NUCLA          FAIR      32  23  69 NE3       30.25F
$$

COZ017>023-064>068-100900-
...SOUTHWEST COLORADO...

CITY           SKY/WX    TMP DP  RH WIND       PRES   REMARKS
DURANGO        FAIR      23  17  78 NE3       30.27F
CORTEZ         FAIR      23  21  92 E7        30.25F WCI  15
PAGOSA SPRINGS FAIR      21  19  91 CALM      30.28F
TELLURIDE      FAIR      32  19  57 SE6       30.29S WCI  26
WOLF CREEK PAS FAIR      19  16  86 S10       30.35F WCI   8
$$

COZ009-010-012-014-032>034-037-058>063-100900-
...CENTRAL COLORADO...

CITY           SKY/WX    TMP DP  RH WIND       PRES   REMARKS
ASPEN          FAIR      28  23  81 SW6       30.16F WCI  22
BUENA VISTA    FAIR      38  17  41 NW9G18    30.13F
COPPER MTN     LGT SNOW  27  14  59 W24       30.19S WCI  12
BERTHOUD PASS  LGT SNOW  18   5  57 NW31G43   30.13F WCI  -2
COTTONWOOD PAS FAIR      36  16  44 W24G48    30.11F
GUNNISON       FAIR      10   8  92 CALM      30.27F
KREMMLING      FAIR      41  23  48 SW10      30.14S
LEADVILLE      FAIR      26  14  60 NE8       30.16F WCI  18
MONARCH PASS     N/A     19  18  93 W35G40    30.33F WCI  -1
SALIDA         FAIR      42  17  36 SW20G25   30.19F
SUNLIGHT       MOCLDY    23  19  86 SW15G29   30.23S WCI  10
WILKERSON PASS FAIR      27  12  54 W21G35    30.12F WCI  13
$$

COZ069>075-100900-
...SAN LUIS VALLEY/SANGRE DE CRISTO MOUNTAINS...

CITY           SKY/WX    TMP DP  RH WIND       PRES   REMARKS
ALAMOSA        FAIR       8   5  87 N5        30.23S WCI   0
LA VETA PASS   FAIR      27  19  74 NE22G40   30.18S WCI  12
SAGUACHE       FAIR      14  12  92 N5        30.24F WCI   6
$$

COZ035-036-038>040-100900-
...NORTHERN COLORADO FRONT RANGE...

CITY           SKY/WX    TMP DP  RH WIND       PRES   REMARKS
DENVER INTL AP FAIR      23  19  85 SW16      30.01F FOG     WCI  10
DMNS CITY PARK   N/A     25  20  80 SW2G10    30.03F
AURORA         PTCLDY    24  23  95 S8        30.03F WCI  15
FRONT RANGE AP FAIR      25  21  86 SW5       30.03F WCI  19
ERIE MUNI ARPT FAIR      19  17  93 SW3       30.04F
BOULDER MUN AP FAIR      25  21  86 SW7       30.03F WCI  17
CENTENNIAL     FAIR      24  21  88 S7        30.02F WCI  16
BROOMFIELD     FAIR      23  21  93 S9        30.02F WCI  13
FORT COLLINS   FAIR      18  12  79 CALM      30.06S
LONGMONT       FAIR      17  14  87 CALM      30.06F
$$

COZ041-046-047-076>085-087-088-100900-
...PIKES PEAK/PALMER DIVIDE AND SOUTHERN FOOTHILLS...

CITY           SKY/WX    TMP DP  RH WIND       PRES   REMARKS
COLO. SPRINGS  MOCLDY    27  17  66 NW3       30.09F
A. F. ACADEMY  FAIR      21  17  83 E5        30.06F WCI  14
SCHRIEVER AFB  NOT AVBL
ELLICOTT       FAIR     N/A N/A N/A N5        30.07F
FALCON         FAIR      25  17  71 CALM      30.08F
FORT CARSON    FAIR      24  14  65 NW1       30.06F
LIMON          FAIR      13  11  92 CALM      30.07F
MONUMENT HILL  FAIR      30  19  64 S7        30.07F WCI  23
TRINIDAD       FAIR      37  17  44 W10       30.08F
$$

COZ042>045-048>051-090-091-100900-
...NORTHEAST COLORADO...

CITY           SKY/WX    TMP DP  RH WIND       PRES   REMARKS
GREELEY ARPT   FAIR      17  14  88 N7        30.06F WCI   8
AKRON          FAIR      23  17  78 S14       30.04F WCI  11
BURLINGTON     FAIR      24  18  77 S10       30.10F WCI  14
WRAY           NOT AVBL
STERLING       MOCLDY    19  14  79 NE6       30.07F WCI  11
HOLYOKE        FAIR      21  18  86 E5        30.13F WCI  15
FORT MORGAN    FAIR      18  15  88 N9        30.07S WCI   7
$$

COZ086-089-092>099-100900-
...SOUTHEAST COLORADO...

CITY           SKY/WX    TMP DP  RH WIND       PRES   REMARKS
PUEBLO         FAIR      19  11  70 W6        30.10F WCI  11
LA JUNTA       FAIR      20  11  68 W9        30.11R WCI   9
LAMAR          FAIR      22  18  85 E8        30.09F WCI  12
SPRINGFIELD      N/A     20  19  96 S5        30.10F WCI  13
$$




USA.gov is the U.S. government's official web portal to all federal, state and local government web resources and services.